User: anonymous   Login
Location: Betra
(48.4113°N, 8.6634°E)
Time: 18:28:38
(UTC+00:00)
Language:

Cosmos 1190 Rocket - Orbit

View from above orbital plane
View from above orbital plane
View from above satellite
View from above satellite

Ground track
Ground track

The orbit data is extracted from the following two-line orbital elements,

1 11870U 80056B   24207.20932371  .00000601  00000-0  20820-3 0  9990
2 11870  74.0535 120.4143 0015819 151.6370 208.5649 14.37723261307588
Epoch (UTC): 25 July 2024 05:01:25
Eccentricity: 0.0015819
inclination: 74.0535°
perigee height: 755 km
apogee height: 777 km
right ascension of ascending node: 120.4143°
argument of perigee: 151.6370°
revolutions per day: 14.37723261
mean anomaly at epoch: 208.5649°
orbit number at epoch: 30758

The dashed part of the orbit path shows where the satellite is in the earth's shadow,  

DLR